Location: *
(48.8489°N, 2.3218°E)
Time: 11:34:45
(UTC+00:00)

Cosmos 1809 Rocket - Pass Details

Date: 23 August 2019
Orbit: 942 x 962 km, 82.5° (Epoch: 23 September)

Event Time Altitude Azimuth Distance (km) Brightness Sun altitude
Rises 20:03:45 0° 351° (N) 3,653 8.2 -11.5°
Reaches altitude 10° 20:06:16 10° 353° (N) 2,705 7.4 -11.9°
Maximum altitude 20:12:28 75° 79° (E) 1,000 4.5 -12.7°
Drops below altitude 10° 20:18:38 10° 165° (SSE) 2,692 6.4 -13.6°
Enters shadow 20:18:42 10° 165° (SSE) 2,715 6.4 -13.6°
